Date String (YYYY-MM-DD hh:mm:ss) UTC,Instrument flags,absolute air pressure of the measurement (hPa),sample flow rate (lpm),inlet stack bypass flow (lpm),air temperature of the measurement (°C),ambient temperature measured by the external sensor (°C),aerosol sample conditioner tube jacket temperature (°C),OPC LED temperature (°C),internal box temperature (°C),relative humidity of the measurement (%),span deviation,mass concentration of particles derived from Lorenz-Mie calculation of OPC scattering (μg/m³),mass concentration of particles derived from Lorenz-Mie calculation of OPC scattering (μg/m³),mass concentration of particles derived from Lorenz-Mie calculation of OPC scattering (μg/m³)
DateTimeUTC,F1_M11,P_M11,Q1_M11,Q2_M11,T1_M11,T2_M11,T3_M11,T4_M11,T5_M11,U1_M11,ZSPAN_M11,X2_M11,X0_M11,X1_M11
2023-11-14 03:00:00,SystemResetWarning,0831.6,5.00,000.00,028.1,026.8,000.0,036.5,029.5,6.9,0000.0,0003.16,0008.17,0002.31
2023-11-14 03:01:00,SystemResetWarning,0831.6,5.00,000.00,028.1,026.9,000.0,036.5,029.5,6.9,0000.0,0003.16,0008.54,0002.31
2023-11-14 03:02:00,SystemResetWarning,0831.6,5.00,000.00,028.1,026.9,000.0,036.5,029.5,6.9,0000.0,0003.13,0008.45,0002.30
2023-11-14 03:03:00,SystemResetWarning,0831.6,5.00,000.00,028.1,026.8,000.0,036.5,029.4,7.0,0000.0,0003.14,0009.24,0002.29
2023-11-14 03:04:00,SystemResetWarning,0831.6,5.00,000.00,028.1,026.8,000.0,036.5,029.4,7.0,0000.0,0003.11,0009.19,0002.27
2023-11-14 03:05:00,SystemResetWarning,0831.5,5.00,000.00,028.1,026.8,000.0,036.5,029.4,7.0,0000.0,0003.06,0009.05,0002.25
2023-11-14 03:06:00,SystemResetWarning,0831.5,5.00,000.00,028.1,026.9,000.0,036.5,029.4,7.1,0000.0,0003.02,0008.95,0002.22
2023-11-14 03:07:00,SystemResetWarning,0831.5,5.00,000.00,028.1,026.9,000.0,036.5,029.4,7.1,0000.0,0002.96,0008.87,0002.18
2023-11-14 03:08:00,SystemResetWarning,0831.5,5.00,000.00,028.1,026.9,000.0,036.5,029.4,7.1,0000.0,0002.92,0008.60,0002.16
2023-11-14 03:09:00,SystemResetWarning,0831.5,5.00,000.00,028.0,026.8,000.0,036.5,029.4,7.1,0000.0,0002.99,0008.76,0002.14
2023-11-14 03:10:00,SystemResetWarning,0831.5,5.00,000.00,028.0,026.8,000.0,036.5,029.4,7.0,0000.0,0003.00,0008.87,0002.12
2023-11-14 03:11:00,SystemResetWarning,0831.5,5.00,000.00,028.0,026.8,000.0,036.5,029.4,7.0,0000.0,0002.92,0008.30,0002.09
2023-11-14 03:12:00,SystemResetWarning,0831.6,5.00,000.00,028.0,026.8,000.0,036.5,029.3,7.1,0000.0,0002.83,0008.10,0002.05
2023-11-14 03:13:00,SystemResetWarning,0831.6,4.99,000.00,028.1,026.8,000.0,036.5,029.4,7.1,0000.0,0002.84,0008.57,0002.04
2023-11-14 03:14:00,SystemResetWarning,0831.5,4.99,000.00,028.0,026.8,000.0,036.5,029.4,7.1,0000.0,0002.76,0007.94,0002.01
2023-11-14 03:15:00,SystemResetWarning,0831.5,5.01,000.00,028.0,026.8,000.0,036.5,029.4,7.1,0000.0,0002.79,0007.85,0002.00
2023-11-14 03:16:00,SystemResetWarning,0831.5,5.00,000.00,028.0,026.9,000.0,036.5,029.4,7.1,0000.0,0002.77,0007.75,0001.99
2023-11-14 03:17:00,SystemResetWarning,0831.5,5.01,000.00,028.0,026.9,000.0,036.4,029.4,7.2,0000.0,0002.72,0007.81,0001.97
2023-11-14 03:18:00,SystemResetWarning,0831.5,5.01,000.00,028.0,026.9,000.0,036.4,029.4,7.1,0000.0,0002.72,0007.71,0001.99
2023-11-14 03:19:00,SystemResetWarning,0831.5,5.01,000.00,028.0,026.9,000.0,036.4,029.4,7.1,0000.0,0002.71,0007.92,0001.99
2023-11-14 03:20:00,SystemResetWarning,0831.5,5.00,000.00,028.0,026.9,000.0,036.4,029.4,7.2,0000.0,0002.67,0008.22,0002.00
2023-11-14 03:21:00,SystemResetWarning,0831.5,5.00,000.00,028.0,026.9,000.0,036.4,029.3,7.2,0000.0,0002.69,0007.98,0002.01
2023-11-14 03:22:00,SystemResetWarning,0831.5,5.00,000.00,028.0,026.9,000.0,036.4,029.3,7.3,0000.0,0002.70,0007.95,0002.03
2023-11-14 03:23:00,SystemResetWarning,0831.6,4.99,000.00,028.0,026.9,000.0,036.4,029.3,7.2,0000.0,0002.70,0007.56,0002.05
2023-11-14 03:24:00,SystemResetWarning,0831.5,5.00,000.00,028.0,026.9,000.0,036.4,029.3,7.2,0000.0,0002.69,0007.34,0002.05
2023-11-14 03:25:00,SystemResetWarning,0831.5,5.01,000.00,028.0,026.9,000.0,036.4,029.3,7.3,0000.0,0002.70,0007.32,0002.07
2023-11-14 03:26:00,SystemResetWarning,0831.5,5.00,000.00,028.0,026.9,000.0,036.4,029.3,7.3,0000.0,0002.70,0007.27,0002.07
2023-11-14 03:27:00,SystemResetWarning,0831.4,5.01,000.00,028.0,026.9,000.0,036.4,029.3,7.4,0000.0,0002.79,0007.46,0002.09
2023-11-14 03:28:00,SystemResetWarning,0831.4,5.01,000.00,028.0,026.9,000.0,036.4,029.4,7.4,0000.0,0002.89,0007.73,0002.11
2023-11-14 03:29:00,SystemResetWarning,0831.5,4.99,000.00,028.0,026.8,000.0,036.4,029.3,7.3,0000.0,0002.92,0007.89,0002.11
2023-11-14 03:30:00,SystemResetWarning,0831.4,4.99,000.00,028.0,026.8,000.0,036.4,029.3,7.3,0000.0,0002.94,0007.62,0002.13
2023-11-14 03:31:00,SystemResetWarning,0831.5,5.01,000.00,028.0,026.8,000.0,036.4,029.3,7.3,0000.0,0002.90,0006.76,0002.15
2023-11-14 03:32:00,SystemResetWarning,0831.4,5.01,000.00,028.0,026.8,000.0,036.4,029.3,7.3,0000.0,0002.85,0006.73,0002.15
2023-11-14 03:33:00,SystemResetWarning,0831.4,4.99,000.00,028.0,026.8,000.0,036.4,029.3,7.4,0000.0,0002.89,0006.81,0002.16
2023-11-14 03:34:00,SystemResetWarning,0831.5,4.99,000.00,027.9,026.8,000.0,036.4,029.3,7.4,0000.0,0002.99,0007.32,0002.18
2023-11-14 03:35:00,SystemResetWarning,0831.5,5.00,000.00,027.9,026.8,000.0,036.4,029.3,7.4,0000.0,0003.05,0008.12,0002.22
2023-11-14 03:36:00,SystemResetWarning,0831.4,4.99,000.00,027.9,026.7,000.0,036.4,029.3,7.5,0000.0,0003.06,0007.80,0002.23
2023-11-14 03:37:00,SystemResetWarning,0831.4,5.00,000.00,027.9,026.7,000.0,036.4,029.3,7.5,0000.0,0003.06,0007.80,0002.26
2023-11-14 03:38:00,SystemResetWarning,0831.4,5.00,000.00,027.9,026.7,000.0,036.4,029.3,7.5,0000.0,0003.00,0008.14,0002.27
2023-11-14 03:39:00,SystemResetWarning,0831.4,5.00,000.00,027.9,026.7,000.0,036.4,029.3,7.6,0000.0,0002.97,0008.36,0002.30
2023-11-14 03:40:00,SystemResetWarning,0831.4,5.01,000.00,027.9,026.7,000.0,036.3,029.3,7.6,0000.0,0003.00,0008.25,0002.32
2023-11-14 03:41:00,SystemResetWarning,0831.5,5.00,000.00,027.9,026.7,000.0,036.3,029.3,7.5,0000.0,0003.02,0008.27,0002.33
2023-11-14 03:42:00,SystemResetWarning,0831.4,5.01,000.00,027.9,026.7,000.0,036.3,029.3,7.6,0000.0,0003.06,0008.31,0002.34
2023-11-14 03:43:00,SystemResetWarning,0831.5,5.00,000.00,027.9,026.7,000.0,036.3,029.3,7.6,0000.0,0003.12,0008.99,0002.37
2023-11-14 03:44:00,SystemResetWarning,0831.4,5.01,000.00,027.9,026.7,000.0,036.3,029.3,7.6,0000.0,0003.18,0009.94,0002.40
2023-11-14 03:45:00,SystemResetWarning,0831.4,5.00,000.00,027.9,026.7,000.0,036.3,029.3,7.6,0000.0,0003.18,0009.76,0002.42
2023-11-14 03:46:00,SystemResetWarning,0831.4,4.99,000.00,027.9,026.7,000.0,036.3,029.3,7.6,0000.0,0003.21,0008.85,0002.45
2023-11-14 03:47:00,SystemResetWarning,0831.4,5.00,000.00,027.9,026.7,000.0,036.3,029.3,7.6,0000.0,0003.24,0008.81,0002.48
2023-11-14 03:48:00,SystemResetWarning,0831.4,5.00,000.00,027.9,026.7,000.0,036.3,029.3,7.6,0000.0,0003.26,0008.74,0002.49
2023-11-14 03:49:00,SystemResetWarning,0831.4,5.00,000.00,027.9,026.7,000.0,036.3,029.3,7.6,0000.0,0003.32,0008.62,0002.53
2023-11-14 03:50:00,SystemResetWarning,0831.3,5.00,000.00,027.9,026.7,000.0,036.3,029.2,7.5,0000.0,0003.35,0009.22,0002.54
2023-11-14 03:51:00,SystemResetWarning,0831.3,5.00,000.00,027.9,026.7,000.0,036.3,029.2,7.3,0000.0,0003.41,0009.76,0002.58
2023-11-14 03:52:00,SystemResetWarning,0831.3,5.00,000.00,027.9,026.7,000.0,036.3,029.2,7.5,0000.0,0003.44,0009.88,0002.61
2023-11-14 03:53:00,SystemResetWarning,0831.4,5.00,000.00,027.9,026.7,000.0,036.3,029.3,7.5,0000.0,0003.47,0009.96,0002.63
2023-11-14 03:54:00,SystemResetWarning,0831.4,5.00,000.00,027.9,026.7,000.0,036.3,029.2,7.6,0000.0,0003.49,0009.50,0002.66
2023-11-14 03:55:00,SystemResetWarning,0831.4,5.00,000.00,027.9,026.7,000.0,036.3,029.2,7.5,0000.0,0003.48,0008.89,0002.66
2023-11-14 03:56:00,SystemResetWarning,0831.4,5.00,000.00,027.9,026.7,000.0,036.3,029.3,7.5,0000.0,0003.50,0009.14,0002.66
2023-11-14 03:57:00,SystemResetWarning,0831.4,5.00,000.00,027.9,026.7,000.0,036.3,029.3,7.6,0000.0,0003.48,0009.25,0002.62
2023-11-14 03:58:00,SystemResetWarning,0831.4,5.00,000.00,027.9,026.7,000.0,036.3,029.3,7.7,0000.0,0003.50,0009.93,0002.62
2023-11-14 03:59:00,SystemResetWarning,0831.4,5.00,000.00,027.9,026.7,000.0,036.3,029.3,7.8,0000.0,0003.52,0011.19,0002.63
